Hourly Weather Roundup
Issued by NWS Central Illinois

Home | Current Version | Previous Version | Text Only | Print | Product List | Glossary Off
Versions: 1 2 3 4 5 6 7 8 9 10 11 12 13 14 15 16 17 18 19 20 21 22 23 24 25 26 27 28 29 30 31 32 33 34 35 36 37 38 39 40 41 42 43 44 45 46 47 48 49 50

000
NZUS43 KILX 141710
HWRILX

AREA WEATHER ROUNDUP
NATIONAL WEATHER SERVICE, LINCOLN IL
1200 PM CDT SUN SEP 14 2014


CITY           SKY/WX    TMP DP  RH WIND       PRES   REMARKS
BLOOMINGTON    SUNNY     60  42  51 VRB5      30.31F
CHAMPAIGN      MOSUNNY   63  43  48 VRB3      30.30F
DECATUR        MOSUNNY   63  44  50 SW3       30.30F
FLORA          SUNNY     64  45  50 CALM      30.30F
GALESBURG      PTSUNNY   64  46  51 S7        30.29F
JACKSONVILLE   SUNNY     65  42  43 CALM      30.31S
LACON          MOSUNNY   60  40  47 SW8       30.29F
LAWRENCEVILLE  SUNNY     64  48  56 VRB5      30.30F
LITCHFIELD     SUNNY     61  43  52 CALM      30.30F
$$


CITY           SKY/WX    TMP DP  RH WIND       PRES   REMARKS
LINCOLN        SUNNY     65  42  43 SE3       30.28F
MACOMB         CLOUDY    61  43  51 SW5       30.31F
MATTOON        SUNNY     62  45  53 MISG      30.30F
MT CARMEL AP   SUNNY     68  45  42 CALM      30.29F
OLNEY-NOBLE AP SUNNY     63  46  55 CALM      30.30F
PARIS          SUNNY     63  45  52 CALM      30.30F
PEORIA         MOSUNNY   63  43  48 SW6       30.30F
PONTIAC        SUNNY     63  43  48 CALM      30.30F
RANTOUL        SUNNY     63  41  45 E5        30.31F
ROBINSON       SUNNY     66  47  49 CALM      30.31F
SPRINGFIELD    SUNNY     63  43  48 SE6       30.30F
TAYLORVILLE    MOSUNNY   61  39  44 SW5       30.30F
$$

...REGIONAL REPORTS...


CITY           SKY/WX    TMP DP  RH WIND       PRES   REMARKS
CHICAGO O`HARE MOSUNNY   60  41  49 SW12      30.28F
KANKAKEE       MOSUNNY   62  45  52 SE5       30.31F
MOLINE         SUNNY     62  43  49 S8        30.27F
MOUNT VERNON   SUNNY     63  46  55 CALM      30.31F
PITTSFIELD     CLOUDY    63  44  48 CALM      30.31F
QUINCY         MOSUNNY   62  41  46 S6        30.29F
ROCKFORD       MOSUNNY   60  41  49 SW9       30.30F
$$


CITY           SKY/WX    TMP DP  RH WIND       PRES   REMARKS
BURLINGTON     SUNNY     62  46  55 S8        30.28F
CEDAR RAPIDS   MOSUNNY   62  48  60 SW12      30.24F
DES MOINES     MOSUNNY   66  49  54 SW9       30.21F
KIRKSVILLE     SUNNY     64  46  52 VRB5      30.28F
OTTUMWA        SUNNY     63  46  54 VRB7      30.25F
ST LOUIS       MOSUNNY   66  43  43 CALM      30.30F
$$


CITY           SKY/WX    TMP DP  RH WIND       PRES   REMARKS
TERRE HAUTE    MOSUNNY   63  45  51 VRB3      30.30F
EVANSVILLE     SUNNY     67  47  48 VRB3      30.29F
INDIANAPOLIS   MOSUNNY   63  45  51 S6        30.29F
LAFAYETTE      PTSUNNY   61  44  53 N3        30.30F
MADISON        MOSUNNY   60  43  53 S13G20    30.23F
MILWAUKEE      PTSUNNY   59  40  49 SW13      30.27F
$$





USA.gov is the U.S. government's official web portal to all federal, state and local government web resources and services.